Location: Newark
(40.2531°N, 0.7525°W)
Time: 16:15:11
(UTC+00:00)

N. Korean satellite - Visible Passes

Search period start: 21 March 2019 00:00
Search period end: 31 March 2019 00:00
Orbit: 456 x 510 km, 97.2° (Epoch: 20 March)

Date Brightness Start Highest point End Pass type
(mag) Time Alt. Az. Time Alt. Az. Time Alt. Az.
21 Mar 10.3 05:09:03 10° ENE 05:10:10 11° E 05:11:17 10° ESE visible
24 Mar 9.7 05:26:36 10° NE 05:29:16 20° E 05:31:56 10° SE visible
28 Mar 9.8 05:20:54 10° NE 05:23:20 17° E 05:25:47 10° SE visible
